Flag for U.S.A. Weather past 2 weeks in Virginia Beach, Virginia, U.S.A.

Now
72 °F

Partly cloudy.


Feels Like: 68 °F
Forecast: 71 / 87 °F
Wind: No wind

Location: Virginia Beach - Oceana

Current Time: Aug 21, 2014 at 5:17:04 AM

Latest Report: Aug 21, 2014 at 3:56 AM


Visibility: 10 mi

Pressure: 29.98 "Hg

Humidity: 93%

Dew point: 70 °F

Location of Virginia BeachLocation

Historic Weather in Virginia Beach — Graph

°F

Virginia Beach temperature yesterday

Maximum temperature yesterday: 82 °F (at 12:56 PM)
Minimum temperature yesterday: 74 °F (at 2:56 AM)
Average temperature yesterday: 77 °F

Past Weeks' High & Low Weather Summary

 TemperatureHumidityPressure
High87 °F (Aug 16, 3:56 PM)97% (Aug 8, 2:56 AM)30.14 "Hg (Aug 8, 2:56 AM)
Low65 °F (Aug 8, 3:56 AM)27% (Aug 14, 1:56 PM)29.73 "Hg (Aug 13, 2:00 AM)
Average76 °F75%29.96 "Hg
* Reported Aug 6 3:56 AM — Aug 21 3:56 AM, Virginia Beach, Weather by CustomWeather, © 2014

Note: Actual official high and low records may vary slightly from our data, if they occured in-between our weather recording intervals... More about our weather records

Advertising

Virginia Beach weather history for previous 24 hours

 ConditionsComfort  
Time TempWeatherWind HumidityBarometerVisibility
3:56 AM
Aug 21
72 °FPartly cloudy.No wind93%29.98 "Hg10 mi
2:56 AM74 °FPartly cloudy.3 mph88%29.99 "Hg10 mi
1:56 AM72 °FPassing clouds.3 mph91%30.00 "Hg10 mi
12:56 AM72 °FPartly cloudy.No wind91%30.01 "Hg10 mi
11:56 PM
Aug 20
74 °FPassing clouds.No wind85%30.03 "Hg10 mi
10:56 PM74 °FPassing clouds.7 mph85%30.00 "Hg10 mi
9:56 PM75 °FPassing clouds.5 mph79%30.01 "Hg10 mi
8:56 PM75 °FPassing clouds.6 mph82%30.00 "Hg10 mi
7:56 PM75 °FScattered clouds.6 mph82%29.99 "Hg10 mi
6:56 PM77 °FScattered clouds.8 mph77%29.98 "Hg10 mi
5:56 PM79 °FScattered clouds.9 mph72%29.98 "Hg10 mi
4:56 PM79 °FScattered clouds.8 mph72%29.98 "Hg10 mi
3:56 PM81 °FScattered clouds.10 mph67%29.96 "Hg10 mi
2:56 PM80 °FScattered clouds.8 mph69%29.96 "Hg10 mi
1:56 PM82 °FScattered clouds.9 mph65%29.98 "Hg10 mi
12:56 PM82 °FScattered clouds.6 mph63%29.99 "Hg10 mi
11:56 AM81 °FScattered clouds.6 mph67%29.99 "Hg10 mi
10:56 AM79 °FBroken clouds.9 mph67%29.98 "Hg10 mi
9:56 AM79 °FPartly sunny.9 mph72%29.98 "Hg10 mi
8:56 AM78 °FScattered clouds.9 mph74%29.96 "Hg10 mi
7:56 AM78 °FScattered clouds.6 mph74%29.94 "Hg10 mi
6:56 AM75 °FPassing clouds.9 mph82%29.92 "Hg10 mi
5:56 AM75 °FMostly cloudy.7 mph85%29.90 "Hg10 mi
Weather by CustomWeather, © 2014

See weather overviewHow to use our weather pages